FW0772 Weather Reports


time (UTC)temp
C
wind
direction
speed
KPH
gust
KPH
rain 1hr
cm
rain 24hr
cm
rain mn
cm
humidity
%
barometer
mb
20260507060039 6 9 1.6 14.5 0.00 1.17 0.00 91 1013.4
20260507054548 6 56 4.8 12.9 0.00 1.45 0.00 91 1013.5
20260507053035 6 148 1.6 14.5 0.00 1.45 0.00 92 1013.6
20260507051532 6 0 1.6 11.3 0.00 1.45 0.00 92 1013.2
20260507050036 6 0 1.6 14.5 0.00 1.45 0.00 92 1013.1
20260507044539 6 65 3.2 12.9 0.00 1.65 0.00 93 1012.9
20260507043035 6 5 1.6 14.5 0.00 1.65 0.00 93 1012.6
20260507041541 6 0 1.6 9.7 0.00 1.65 0.00 93 1012.5
20260507040036 6 0 0.0 8.0 0.00 1.65 0.00 93 1012.3
20260507034530 6 0 0.0 8.0 0.00 1.68 0.00 93 1012.3
20260507033037 6 347 0.0 6.4 0.00 1.68 0.00 93 1012.1
20260507031539 6 67 0.0 6.4 0.00 1.68 0.00 93 1012.0
20260507030047 6 30 1.6 9.7 0.00 1.68 0.00 93 1011.9
20260507024541 6 0 0.0 9.7 0.00 1.68 0.00 93 1011.8
20260507023034 6 87 0.0 9.7 0.00 1.68 0.00 93 1011.7
20260507021539 6 0 0.0 8.0 0.00 1.68 0.00 93 1011.7
20260507020039 6 0 3.2 12.9 0.00 1.68 0.00 93 1011.5
20260507014545 6 0 0.0 4.8 0.00 1.68 0.00 93 1011.5
20260507013038 6 0 1.6 8.0 0.00 1.68 0.00 93 1011.5
20260507011533 6 0 0.0 6.4 0.00 1.68 0.00 94 1011.1
20260507010038 6 84 1.6 11.3 0.00 1.68 0.00 94 1010.9
20260507004536 6 0 1.6 9.7 0.00 1.68 0.00 94 1011.1
20260507003039 6 34 1.6 9.7 0.00 1.68 0.00 94 1011.0
20260507001540 6 0 0.0 4.8 0.00 1.68 0.00 94 1010.9
20260507000040 6 0 0.0 12.9 0.00 1.68 0.00 94 1011.0
20260506234534 6 59 0.0 6.4 0.00 1.68 0.00 93 1010.7
20260506233035 6 44 0.0 6.4 0.00 1.68 0.00 94 1010.7
20260506231538 6 0 1.6 14.5 0.00 1.68 0.00 93 1010.7
20260506230037 6 0 3.2 12.9 0.00 1.68 0.00 93 1010.4
20260506224535 6 19 3.2 19.3 0.00 1.68 0.00 94 1010.6
20260506223036 6 5 1.6 14.5 0.00 1.68 0.00 94 1010.4
20260506221536 6 88 4.8 16.1 0.00 1.68 0.00 94 1010.6
20260506220033 6 62 1.6 11.3 0.00 1.68 0.00 94 1010.6
20260506214532 6 64 1.6 9.7 0.00 1.68 1.68 94 1010.7
20260506213036 6 0 0.0 14.5 0.00 1.68 1.68 94 1010.5
20260506211535 6 35 3.2 12.9 0.00 1.68 1.68 94 1010.2
20260506210034 6 74 3.2 14.5 0.00 1.68 1.68 94 1009.9
20260506204535 6 0 1.6 14.5 0.00 1.68 1.68 94 1009.9
20260506203037 6 0 3.2 9.7 0.00 1.68 1.68 94 1010.2
20260506201536 6 0 0.0 6.4 0.00 1.68 1.68 94 1010.0
20260506200036 6 0 1.6 9.7 0.00 1.68 1.68 94 1009.9
20260506194537 6 44 0.0 8.0 0.00 1.68 1.68 94 1009.9
20260506193033 6 68 3.2 8.0 0.00 1.68 1.68 94 1010.0
20260506191538 6 0 1.6 11.3 0.00 1.68 1.68 94 1009.9
20260506190037 7 65 1.6 9.7 0.00 1.68 1.68 94 1009.6
20260506184534 7 0 0.0 8.0 0.00 1.68 1.68 95 1009.6
20260506183039 7 74 1.6 9.7 0.00 1.68 1.68 95 1009.5
20260506181537 7 0 1.6 14.5 0.00 1.68 1.68 95 1009.1
20260506180046 8 0 0.0 14.5 0.00 1.68 1.68 95 1009.0
20260506174541 8 58 1.6 11.3 0.00 1.68 1.68 95 1008.9
20260506173035 9 36 3.2 11.3 0.00 1.68 1.68 96 1008.8
20260506171533 9 57 1.6 9.7 0.00 1.68 1.68 96 1008.6
20260506170032 9 30 1.6 12.9 0.00 1.68 1.68 96 1008.4
20260506164538 9 51 1.6 12.9 0.00 1.68 1.68 96 1008.3
20260506163056 10 98 3.2 12.9 0.00 1.68 1.68 96 1008.1
20260506161535 10 336 0.0 4.8 0.00 1.68 1.68 97 1008.0
20260506160034 10 5 0.0 4.8 0.00 1.68 1.68 97 1008.0
20260506154532 10 0 1.6 8.0 0.00 1.68 1.68 97 1008.1
20260506153041 10 286 1.6 6.4 0.00 1.68 1.68 97 1008.0
20260506151535 10 302 0.0 4.8 0.00 1.68 1.68 97 1008.0
20260506150036 10 0 0.0 14.5 0.00 1.68 1.68 97 1008.1
20260506144534 10 71 1.6 14.5 0.00 1.70 1.68 98 1007.9
20260506143043 10 0 3.2 12.9 0.00 1.70 1.68 98 1007.9
20260506141541 10 86 1.6 11.3 0.00 1.70 1.68 98 1007.8
20260506140035 10 300 1.6 9.7 0.03 1.70 1.68 98 1008.0
20260506134537 10 0 1.6 9.7 0.05 1.70 1.68 98 1008.0
20260506133033 9 59 0.0 12.9 0.08 1.68 1.65 98 1007.9
20260506131530 9 0 0.0 8.0 0.10 1.68 1.65 98 1007.8
20260506130036 9 5 1.6 8.0 0.08 1.68 1.63 98 1007.7
20260506124529 9 0 0.0 3.2 0.13 1.65 1.60 98 1007.7
20260506123038 9 60 1.6 8.0 0.13 1.60 1.57 98 1007.7
20260506121539 8 0 0.0 8.0 0.15 1.57 1.52 98 1007.4
20260506120038 8 350 1.6 9.7 0.23 1.57 1.52 98 1007.2
20260506114543 8 17 0.0 6.4 0.20 1.50 1.47 98 1007.2
20260506113038 8 0 1.6 6.4 0.23 1.47 1.42 98 1007.2
20260506111539 8 71 1.6 9.7 0.23 1.40 1.35 98 1007.0
20260506110034 8 82 1.6 9.7 0.23 1.32 1.30 98 1006.8
20260506104538 8 0 3.2 9.7 0.23 1.30 1.24 98 1006.9
20260506103039 9 0 0.0 6.4 0.20 1.22 1.17 98 1006.9
20260506101536 9 0 0.0 6.4 0.18 1.14 1.12 98 1006.9
20260506100039 9 0 1.6 14.5 0.13 1.09 1.04 98 1006.9
20260506094543 9 349 0.0 12.9 0.10 1.04 1.02 97 1006.8
20260506093038 9 43 1.6 8.0 0.08 0.99 0.94 98 1006.8
20260506091538 9 72 1.6 12.9 0.08 0.94 0.91 98 1006.7
20260506090038 9 36 3.2 12.9 0.08 0.94 0.91 97 1006.6
20260506084537 10 0 1.6 11.3 0.10 1.02 0.89 98 1006.5
20260506083035 10 340 1.6 12.9 0.08 0.97 0.84 98 1006.5
20260506081532 10 139 1.6 12.9 0.05 0.94 0.81 98 1006.5
20260506073042 9 69 0.0 6.4 0.13 1.09 0.76 97 1006.5
20260506071535 9 67 1.6 8.0 0.15 1.04 0.74 97 1006.4
20260506061536 9 5 0.0 9.7 0.20 0.97 0.56 97 1006.5